Regional Weather Roundup
Issued by NWS

Home | Current Version | Previous Version | Graphics & Text | Print | Product List | Glossary On
Versions: 1 2 3 4 5 6 7 8 9 10 11 12 13 14 15 16 17 18 19 20 21 22 23 24 25 26 27 28 29 30 31 32 33 34 35 36 37 38 39 40 41 42 43 44 45 46 47 48 49 50
000
ASUS43 KLOT 302103
RWRIL

ILLINOIS REGIONAL WEATHER ROUNDUP
NATIONAL WEATHER SERVICE CHICAGO/ROMEOVILLE IL
400 PM CDT MON MAY 30 2016

NOTE: "FAIR" INDICATES FEW OR NO CLOUDS BELOW 12,000 FEET WITH NO
SIGNIFICANT WEATHER AND/OR OBSTRUCTIONS TO VISIBILITY.

* THESE STATIONS ARE NOT UNDER NWS QUALITY CONTROL. THEY ALSO MAY NOT
  REPORT WEATHER SUCH AS PRECIPITATION OR FOG.

ILZ001-002-007-009-015-016-024-302200-
NORTHWEST ILLINOIS

CITY           SKY/WX    TMP DP  RH WIND       PRES   REMARKS
MOLINE         SUNNY     86  59  39 CALM      29.97F HX  85
STERLING*      SUNNY     86  59  39 W8        29.97F HX  85
$$

ILZ003-004-008-010-011-017-018-302200-
NORTH CENTRAL ILLINOIS

CITY           SKY/WX    TMP DP  RH WIND       PRES   REMARKS
ROCKFORD       PTSUNNY   83  52  34 W8        29.99F HX  82
FREEPORT*      SUNNY     83  50  32 NW7       30.00S HX  81
ROCHELLE*      SUNNY     83  57  41 W6        29.98F HX  83
DE KALB*       SUNNY     84  55  37 N5        29.98F HX  83
$$

ILZ005-006-012>014-019>023-302200-
NORTHEAST ILLINOIS

CITY           SKY/WX    TMP DP  RH WIND       PRES   REMARKS
CHICAGO-OHARE  MOSUNNY   87  51  28 NW8       29.96F HX  85
CHICAGO-MIDWAY MOSUNNY   84  57  39 E12       29.96F HX  83
AURORA         SUNNY     87  57  35 W10       29.97F HX  86
LANSING*       SUNNY     84  57  39 N9        29.97F HX  83
WAUKEGAN       SUNNY     75  58  55 SE9       29.98S
DUPAGE AIRPORT SUNNY     86  52  30 NW12      29.97F HX  84
WHEELING       MOSUNNY   82  58  43 VRB3      29.97F HX  82
NORTHERLY ISL    N/A     68  58  70 NE2         N/A
NORTHERLY ISL    N/A     68  58  70 NE2         N/A
$$

LMZ740>746-302200-
SOUTHERN LAKE MICHIGAN

STATION/POSITION SKY/WX   TEMP    WIND        PRES    VSBY  WAVE
                          AIR SEA DIR/SP/G                  HT/PER
                          (F)     (DEG/KT/KT) (MB)    (MI)  (FT/S)
SOUTHERN BUOY              60 57  110/  4/  4 1015.5          0
WILMETTE HARBOR            62 57  160/  6/  8   N/A           1
HARRISON CRIB              65     100/  5/  6   N/A
BURNHAM HARBOR             69     110/  2/  4   N/A
CALUMET HARBOR             68      50/  8/ 10 1015.3F
BURNS HARBOR               67      80/ 11/ 12 1016.3S
MICHIGAN CITY              66      30/  9/  9   N/A
MICHIGAN CITY 6N           65 62   70/  6/  6   N/A           1
ST. JOSEPH                 67 67   10/  2/  2   N/A           0
$$

ILZ025>027-034>036-040-047-049-050-058-095>099-302200-
WEST-CENTRAL ILLINOIS

CITY           SKY/WX    TMP DP  RH WIND       PRES   REMARKS
QUINCY         CLOUDY    84  63  49 S8        29.99F HX  85
MACOMB*        PTSUNNY   85  59  41 S7        30.02F HX  85
PITTSFIELD*    CLOUDY    85  63  47 SE6       30.01F HX  85
$$

ILZ028>032-037-038-041>044-048-051>054-059>061-302200-
CENTRAL ILLINOIS

CITY           SKY/WX    TMP DP  RH WIND       PRES   REMARKS
BLOOMINGTON    PTSUNNY   87  63  44 W9        30.01F HX  88
DECATUR        CLOUDY    82  64  54 S5        29.99F HX  83
PEORIA         CLOUDY    85  59  41 E6        29.99F HX  84
LINCOLN*       CLOUDY    87  62  43 CALM      29.99F HX  87
SPRINGFIELD    CLOUDY    86  62  44 SW7       30.00F HX  86
TAYLORVILLE    NOT AVBL
$$

ILZ033-039-045-046-055>057-062-063-302200-
EAST-CENTRAL ILLINOIS

CITY           SKY/WX    TMP DP  RH WIND       PRES   REMARKS
CHAMPAIGN      MOSUNNY   87  51  28 W3        29.99F HX  85
MATTOON        LGT RAIN  81  61  50 SW7       30.01F HX  82
$$

ILZ079-100>102-302200-
SOUTHWEST ILLINOIS

CITY           SKY/WX    TMP DP  RH WIND       PRES   REMARKS
CAHOKIA*       CLOUDY    86  60  41 E7        29.99F HX  86
SPARTA*        MOSUNNY   84  64  51 SE8       30.02F HX  85
$$

ILZ064>066-069>071-074>076-080>082-084>086-088>090-092>094-302200-
SOUTH-CENTRAL ILLINOIS

CITY           SKY/WX    TMP DP  RH WIND       PRES   REMARKS
CARBONDALE     CLOUDY    86  59  39 NE3       30.00F HX  85
CAIRO*         MOSUNNY   87  58  37 NE6       29.99F HX  86
EFFINGHAM*     SUNNY     87  61  41 W3        30.02F HX  87
MARION         PTSUNNY   88  61  40 SE8       30.01F HX  88
MT. VERNON     CLOUDY    84  63  48 CALM      30.01F HX  85
SALEM*         SUNNY     87  56  34 CALM      30.01F HX  85
$$

ILZ067-068-072-073-078-083-087-091-302200-
SOUTHEAST ILLINOIS

CITY           SKY/WX    TMP DP  RH WIND       PRES   REMARKS
LAWRENCEVILLE  MOSUNNY   88  58  36 NE3       30.01F HX  87
FLORA*         PTSUNNY   88  58  35 N6        30.00F HX  87
HARRISBURG*    SUNNY     85  63  47 CALM      30.01F HX  86
ROBINSON*      PTSUNNY   87  56  35 CALM      30.02F HX  85
CARMI*         MOSUNNY   84  61  45 N5        30.00F HX  85
$$

ABBREVIATIONS USED IN REMARKS
   TC - TEMPERATURE IN CELSIUS
  WCI - WIND CHILL INDEX
   HX - HEAT INDEX
  VSB - VISIBILITY
$$





USA.gov is the U.S. government's official web portal to all federal, state and local government web resources and services.